| time (UTC) | temp C | wind direction | speed KPH | gust KPH | rain 1hr cm | rain 24hr cm | rain mn cm | humidity % | barometer mb |
| 20260502234526 | 6 | 326 | 0.0 | 0.0 | 0.00 | 0.00 | 0.79 | 75 | 1016.5 |
| 20260502233014 | 6 | 326 | 0.0 | 0.0 | 0.00 | 0.00 | 0.79 | 75 | 1016.3 |
| 20260502231509 | 6 | 326 | 0.0 | 0.0 | 0.00 | 0.00 | 0.79 | 74 | 1016.3 |
| 20260502230015 | 6 | 326 | 0.0 | 0.0 | 0.00 | 0.00 | 0.79 | 72 | 1016.4 |
| 20260502224612 | 6 | 330 | 0.0 | 0.0 | 0.00 | 0.00 | 0.79 | 71 | 1016.5 |
| 20260502224501 | 6 | 330 | 0.0 | 0.0 | 0.00 | 0.00 | 0.79 | 71 | 1016.5 |
| 20260502223057 | 6 | 330 | 0.0 | 0.0 | 0.00 | 0.00 | 0.79 | 69 | 1016.5 |
| 20260502223002 | 6 | 331 | 0.0 | 0.0 | 0.00 | 0.00 | 0.79 | 69 | 1016.5 |
| 20260502221555 | 6 | 16 | 0.0 | 0.0 | 0.00 | 0.00 | 0.79 | 70 | 1016.4 |
| 20260502220042 | 6 | 17 | 0.0 | 0.0 | 0.00 | 0.00 | 0.79 | 70 | 1016.5 |
| 20260502214531 | 6 | 17 | 1.6 | 0.0 | 0.00 | 0.00 | 0.79 | 70 | 1016.4 |
| 20260502213022 | 6 | 323 | 1.6 | 0.0 | 0.00 | 0.00 | 0.79 | 70 | 1016.4 |
| 20260502211532 | 6 | 43 | 3.2 | 0.0 | 0.00 | 0.00 | 0.79 | 69 | 1016.3 |
| 20260502210016 | 6 | 269 | 1.6 | 0.0 | 0.00 | 0.00 | 0.79 | 70 | 1016.2 |
| 20260502204556 | 6 | 69 | 4.8 | 0.0 | 0.00 | 0.00 | 0.79 | 69 | 1016.2 |
| 20260502203057 | 6 | 57 | 4.8 | 0.0 | 0.00 | 0.00 | 0.79 | 67 | 1016.3 |
| 20260502201534 | 6 | 30 | 4.8 | 0.0 | 0.00 | 0.00 | 0.79 | 68 | 1016.3 |
| 20260502200024 | 6 | 355 | 4.8 | 0.0 | 0.00 | 0.00 | 0.79 | 65 | 1016.4 |
| 20260502194508 | 6 | 350 | 6.4 | 0.0 | 0.00 | 0.00 | 0.79 | 68 | 1016.4 |
| 20260502193100 | 6 | 47 | 6.4 | 0.0 | 0.00 | 0.00 | 0.79 | 71 | 1016.4 |
| 20260502193002 | 6 | 59 | 6.4 | 0.0 | 0.00 | 0.00 | 0.79 | 71 | 1016.4 |
| 20260502191549 | 7 | 44 | 3.2 | 0.0 | 0.00 | 0.00 | 0.79 | 68 | 1016.4 |
| 20260502190041 | 7 | 261 | 4.8 | 0.0 | 0.00 | 0.00 | 0.79 | 69 | 1016.5 |
| 20260502184546 | 6 | 295 | 6.4 | 0.0 | 0.00 | 0.00 | 0.79 | 71 | 1016.5 |
| 20260502183034 | 7 | 252 | 4.8 | 0.0 | 0.00 | 0.00 | 0.79 | 72 | 1016.6 |
| 20260502181516 | 6 | 327 | 3.2 | 0.0 | 0.00 | 0.00 | 0.79 | 72 | 1016.6 |
| 20260502163055 | 6 | 232 | 4.8 | 0.0 | 0.00 | 0.00 | 0.79 | 73 | 1016.7 |
| 20260502161542 | 6 | 225 | 4.8 | 0.0 | 0.00 | 0.00 | 0.79 | 76 | 1016.7 |
| 20260502151518 | 5 | 323 | 3.2 | 0.0 | 0.00 | 0.00 | 0.79 | 81 | 1016.7 |
| 20260502123037 | 1 | 355 | 3.2 | 0.0 | 0.00 | 0.00 | 0.58 | 95 | 1016.3 |
| 20260502121528 | 1 | 313 | 3.2 | 0.0 | 0.00 | 0.00 | 0.53 | 95 | 1016.1 |
| 20260502114606 | 0 | 277 | 1.6 | 0.0 | 0.00 | 0.00 | 0.43 | 95 | 1016.1 |
| 20260502113049 | 0 | 242 | 0.0 | 0.0 | 0.00 | 0.00 | 0.41 | 96 | 1016.4 |
| 20260502111531 | 0 | 242 | 0.0 | 0.0 | 0.00 | 0.00 | 0.36 | 96 | 1016.2 |
| 20260502110025 | 0 | 242 | 0.0 | 0.0 | 0.00 | 0.00 | 0.36 | 95 | 1016.1 |
| 20260502104523 | 0 | 242 | 0.0 | 0.0 | 0.00 | 0.00 | 0.33 | 95 | 1015.8 |
| 20260502103014 | 0 | 242 | 0.0 | 0.0 | 0.00 | 0.00 | 0.30 | 95 | 1015.8 |
| 20260502101622 | 0 | 242 | 0.0 | 0.0 | 0.00 | 0.00 | 0.28 | 95 | 1015.7 |
| 20260502101512 | 0 | 242 | 0.0 | 0.0 | 0.00 | 0.00 | 0.28 | 95 | 1015.8 |
| 20260502091527 | 0 | 242 | 0.0 | 0.0 | 0.00 | 0.00 | 0.18 | 95 | 1015.6 |
| 20260502071513 | 1 | 242 | 0.0 | 0.0 | 0.00 | 0.00 | 0.00 | 94 | 1015.5 |
| 20260502070132 | 1 | 242 | 0.0 | 0.0 | 0.00 | 0.00 | 0.00 | 94 | 1015.6 |
| 20260502070005 | 1 | 242 | 0.0 | 0.0 | 0.00 | 0.00 | 0.00 | 94 | 1015.6 |
| 20260502064555 | 2 | 242 | 0.0 | 0.0 | 0.00 | 0.00 | 0.00 | 94 | 1015.8 |
| 20260502063040 | 2 | 242 | 0.0 | 0.0 | 0.00 | 0.00 | 0.00 | 94 | 1015.8 |
| 20260502061528 | 2 | 242 | 1.6 | 0.0 | 0.00 | 0.00 | 0.00 | 94 | 1015.7 |
| 20260502060016 | 2 | 242 | 1.6 | 0.0 | 0.00 | 0.00 | 0.00 | 95 | 1015.7 |
| 20260502054506 | 2 | 210 | 1.6 | 0.0 | 0.00 | 0.00 | 0.00 | 95 | 1015.9 |
| 20260502053054 | 2 | 207 | 0.0 | 0.0 | 0.00 | 0.00 | 0.00 | 94 | 1015.7 |
| 20260502051600 | 2 | 113 | 0.0 | 0.0 | 0.00 | 0.00 | 0.00 | 94 | 1015.7 |
| 20260502050030 | 3 | 113 | 0.0 | 0.0 | 0.00 | 0.00 | 0.00 | 94 | 1015.7 |
| 20260502044519 | 3 | 113 | 0.0 | 0.0 | 0.00 | 0.00 | 0.00 | 94 | 1015.6 |
| 20260502043008 | 3 | 113 | 0.0 | 0.0 | 0.00 | 0.00 | 0.00 | 94 | 1015.6 |
| 20260502041551 | 3 | 113 | 0.0 | 0.0 | 0.00 | 0.00 | 0.00 | 94 | 1015.6 |
| 20260502040052 | 3 | 113 | 0.0 | 0.0 | 0.00 | 0.00 | 0.00 | 94 | 1015.5 |
| 20260502034529 | 3 | 84 | 0.0 | 0.0 | 0.00 | 0.00 | 0.25 | 94 | 1015.6 |
| 20260502033020 | 3 | 57 | 0.0 | 0.0 | 0.00 | 0.00 | 0.25 | 93 | 1015.8 |
| 20260502031508 | 3 | 57 | 0.0 | 0.0 | 0.00 | 0.00 | 0.25 | 93 | 1015.7 |
| 20260502030058 | 3 | 58 | 0.0 | 0.0 | 0.00 | 0.00 | 0.25 | 93 | 1015.7 |
| 20260502024513 | 4 | 57 | 0.0 | 0.0 | 0.00 | 0.00 | 0.25 | 93 | 1015.6 |
| 20260502023123 | 5 | 58 | 0.0 | 0.0 | 0.00 | 0.00 | 0.25 | 93 | 1015.3 |
| 20260502021551 | 5 | 57 | 0.0 | 0.0 | 0.00 | 0.00 | 0.25 | 93 | 1015.4 |
| 20260502014532 | 5 | 58 | 0.0 | 0.0 | 0.00 | 0.00 | 0.25 | 92 | 1015.2 |
| 20260502013025 | 5 | 57 | 0.0 | 0.0 | 0.00 | 0.00 | 0.25 | 92 | 1014.9 |
| 20260502011522 | 5 | 58 | 0.0 | 0.0 | 0.00 | 0.00 | 0.25 | 92 | 1014.7 |
| 20260502010014 | 5 | 57 | 0.0 | 0.0 | 0.00 | 0.00 | 0.23 | 91 | 1014.7 |
| 20260502004624 | 5 | 60 | 0.0 | 0.0 | 0.00 | 0.00 | 0.23 | 90 | 1014.5 |
| 20260502004505 | 5 | 60 | 0.0 | 0.0 | 0.00 | 0.00 | 0.23 | 89 | 1014.5 |
| 20260502003054 | 5 | 60 | 0.0 | 0.0 | 0.00 | 0.00 | 0.23 | 88 | 1014.6 |
| 20260502001603 | 5 | 60 | 0.0 | 0.0 | 0.00 | 0.00 | 0.23 | 86 | 1014.4 |
| 20260502000038 | 6 | 291 | 4.8 | 0.0 | 0.00 | 0.00 | 0.20 | 81 | 1014.4 |